Weather History for KTTF - July, 2013

Change the Weather History Date:

Saturday, July 27, 2013

  Actual Average Record
Temperature  
Mean Temperature 68 °F -  
Max Temperature 75 °F 85 °F 100 °F (1941)
Min Temperature 60 °F 63 °F 51 °F (1962)
Cooling Degree Days 2    
Growing Degree Days 18 (Base 50)    
Moisture  
Dew Point 64 °F    
Average Humidity 83    
Maximum Humidity 94    
Minimum Humidity 69    
Precipitation  
Precipitation 0.00 in - - ()
Sea Level Pressure  
Sea Level Pressure 29.83 in    
Wind  
Wind Speed 7 mph (SSW)    
Max Wind Speed 16 mph    
Max Gust Speed 25 mph    
Visibility 10 miles    
Events Rain    
Averages and records for this station are not official NWS values.
T = Trace of Precipitation, MM = Missing Value Source: NWS Daily Summary

Daily Weather History Graph

Daily Weather History Graph

Search for Another Location

Airport or City:

Trip Planner

Search our weather history database for the weather conditions in past years. The results will help you decide how hot, cold, wet, or windy it might be!

Date:

Astronomy

Jul. 27, 2013 Rise Set
Actual Time 6:22 AM EDT 8:57 PM EDT
Civil Twilight 5:50 AM EDT 9:29 PM EDT
Nautical Twilight 5:10 AM EDT 10:08 PM EDT
Astronomical Twilight 4:25 AM EDT 10:53 PM EDT
Moon 11:37 PM EDT (7/27) 12:08 PM EDT (7/27)
Length of Visible Light 15h 38m
Length of Day
14h 34m
Waning Gibbous, 71% of the Moon is Illuminated
Jul 27
Waning Gibbous
Jul 29
Last Quarter
Aug 6
New
Aug 14
First Quarter
Aug 20
Full

Hourly Weather History & Observations

Time (EDT) Temp. Dew Point Humidity Pressure Visibility Wind Dir Wind Speed Gust Speed Precip Events Conditions
12:15 AM 73.4 °F 62.6 °F 69% 29.91 in 10.0 mi South 6.9 mph - N/A   Overcast
12:35 AM 73.4 °F 62.6 °F 69% 29.91 in 10.0 mi South 6.9 mph - N/A   Overcast
12:55 AM 73.4 °F 62.6 °F 69% 29.90 in 10.0 mi SSW 6.9 mph - N/A   Overcast
1:15 AM 73.4 °F 62.6 °F 69% 29.90 in 10.0 mi SSW 6.9 mph - N/A Rain Light Rain
1:35 AM 73.4 °F 62.6 °F 69% 29.90 in 10.0 mi SW 9.2 mph - N/A   Overcast
1:56 AM 71.6 °F 62.6 °F 73% 29.89 in 10.0 mi WSW 5.8 mph - N/A   Overcast
2:16 AM 71.6 °F 62.6 °F 73% 29.89 in 10.0 mi SW 5.8 mph - N/A   Overcast
2:36 AM 71.6 °F 62.6 °F 73% 29.89 in 10.0 mi West 5.8 mph - N/A   Overcast
2:56 AM 69.8 °F 64.4 °F 83% 29.89 in 10.0 mi WNW 6.9 mph - N/A Rain Light Rain
3:16 AM 69.8 °F 64.4 °F 83% 29.88 in 10.0 mi Calm Calm - N/A   Overcast
3:36 AM 69.8 °F 64.4 °F 83% 29.88 in 10.0 mi Calm Calm - N/A   Overcast
3:56 AM 69.8 °F 64.4 °F 83% 29.88 in 10.0 mi Calm Calm - N/A   Overcast
4:16 AM 69.8 °F 64.4 °F 83% 29.88 in 10.0 mi Calm Calm - N/A   Overcast
4:36 AM 69.8 °F 64.4 °F 83% 29.88 in 10.0 mi SSW 4.6 mph - N/A   Overcast
4:56 AM 68.0 °F 64.4 °F 88% 29.87 in 10.0 mi SSW 5.8 mph - N/A   Overcast
5:16 AM 68.0 °F 64.4 °F 88% 29.87 in 10.0 mi South 4.6 mph - N/A Rain Light Rain
5:37 AM 68.0 °F 64.4 °F 88% 29.86 in 10.0 mi South 4.6 mph - N/A   Overcast
5:52 AM 68.0 °F 64.4 °F 88% 29.87 in 10.0 mi South 5.8 mph - N/A   Overcast
6:12 AM 69.8 °F 64.4 °F 83% 29.87 in 10.0 mi South 6.9 mph - N/A   Overcast
6:32 AM 69.8 °F 64.4 °F 83% 29.87 in 10.0 mi South 8.1 mph - N/A   Overcast
6:52 AM 69.8 °F 64.4 °F 83% 29.87 in 10.0 mi South 5.8 mph - N/A   Overcast
7:12 AM 69.8 °F 64.4 °F 83% 29.87 in 10.0 mi South 6.9 mph - N/A   Overcast
7:32 AM 69.8 °F 64.4 °F 83% 29.87 in 10.0 mi South 6.9 mph - N/A   Overcast
7:52 AM 69.8 °F 64.4 °F 83% 29.87 in 10.0 mi South 6.9 mph - N/A   Overcast
8:12 AM 69.8 °F 64.4 °F 83% 29.87 in 10.0 mi South 6.9 mph - N/A   Overcast
8:33 AM 69.8 °F 64.4 °F 83% 29.86 in 10.0 mi South 9.2 mph - N/A   Overcast
8:53 AM 69.8 °F 64.4 °F 83% 29.86 in 10.0 mi South 8.1 mph - N/A   Overcast
9:13 AM 69.8 °F 66.2 °F 88% 29.85 in 10.0 mi SSW 8.1 mph - N/A   Overcast
9:33 AM 69.8 °F 66.2 °F 88% 29.85 in 10.0 mi South 8.1 mph - N/A   Overcast
9:53 AM 69.8 °F 66.2 °F 88% 29.85 in 10.0 mi SSW 6.9 mph - N/A   Overcast
10:13 AM 69.8 °F 66.2 °F 88% 29.85 in 10.0 mi SSW 8.1 mph - N/A   Overcast
10:33 AM 69.8 °F 66.2 °F 88% 29.84 in 10.0 mi SSW 8.1 mph - N/A   Overcast
10:53 AM 69.8 °F 66.2 °F 88% 29.84 in 10.0 mi South 6.9 mph - N/A   Overcast
11:13 AM 71.6 °F 66.2 °F 83% 29.83 in 10.0 mi SSW 6.9 mph - N/A   Overcast
11:33 AM 71.6 °F 66.2 °F 83% 29.83 in 10.0 mi South 9.2 mph - N/A   Overcast
11:53 AM 71.6 °F 66.2 °F 83% 29.83 in 10.0 mi South 9.2 mph - N/A   Overcast
12:14 PM 71.6 °F 66.2 °F 83% 29.82 in 10.0 mi South 9.2 mph 16.1 mph N/A   Overcast
12:34 PM 71.6 °F 66.2 °F 83% 29.82 in 10.0 mi South 10.4 mph - N/A   Overcast
12:54 PM 71.6 °F 66.2 °F 83% 29.81 in 7.0 mi South 9.2 mph 12.7 mph N/A   Overcast
1:14 PM 69.8 °F 66.2 °F 88% 29.81 in 3.0 mi South 8.1 mph - N/A   Overcast
1:34 PM 68.0 °F 66.2 °F 94% 29.80 in 4.0 mi South 10.4 mph - N/A Rain Rain
1:54 PM 69.8 °F 68.0 °F 94% 29.79 in 5.0 mi South 10.4 mph - N/A Rain Light Rain
2:14 PM 69.8 °F 68.0 °F 94% 29.78 in 10.0 mi South 11.5 mph 18.4 mph N/A   Mostly Cloudy
2:34 PM 69.8 °F 66.2 °F 88% 29.79 in 10.0 mi South 10.4 mph - N/A   Overcast
2:54 PM 71.6 °F 66.2 °F 83% 29.78 in 10.0 mi South 6.9 mph - N/A   Overcast
3:15 PM 71.6 °F 68.0 °F 88% 29.77 in 10.0 mi SSW 12.7 mph 17.3 mph N/A   Overcast
3:35 PM 73.4 °F 68.0 °F 83% 29.77 in 10.0 mi South 9.2 mph - N/A   Overcast
3:55 PM 71.6 °F 68.0 °F 88% 29.76 in 10.0 mi South 13.8 mph 18.4 mph N/A   Mostly Cloudy
4:15 PM 71.6 °F 68.0 °F 88% 29.75 in 7.0 mi South 10.4 mph - N/A Rain Rain
4:35 PM 71.6 °F 66.2 °F 83% 29.74 in 10.0 mi South 11.5 mph - N/A Rain Light Rain
4:55 PM 71.6 °F 64.4 °F 78% 29.74 in 10.0 mi South 6.9 mph - N/A   Scattered Clouds
5:15 PM 73.4 °F 66.2 °F 78% 29.73 in 10.0 mi SSW 6.9 mph - N/A   Clear
5:35 PM 75.2 °F 66.2 °F 73% 29.73 in 10.0 mi South 8.1 mph - N/A   Clear
5:55 PM 73.4 °F 64.4 °F 73% 29.74 in 10.0 mi South 9.2 mph - N/A   Scattered Clouds
6:16 PM 66.2 °F 62.6 °F 88% 29.77 in 1.0 mi Calm Calm - N/A Rain Heavy Rain
6:36 PM 66.2 °F 64.4 °F 94% 29.76 in 10.0 mi Calm Calm - N/A   Overcast
6:56 PM 71.6 °F 66.2 °F 83% 29.76 in 10.0 mi NW 6.9 mph - N/A   Scattered Clouds
7:16 PM 71.6 °F 64.4 °F 78% 29.77 in 10.0 mi NW 9.2 mph 19.6 mph N/A   Scattered Clouds
7:36 PM 69.8 °F 64.4 °F 83% 29.78 in 10.0 mi NW 8.1 mph - N/A   Overcast
7:56 PM 68.0 °F 60.8 °F 78% 29.80 in 10.0 mi NW 15.0 mph 25.3 mph N/A   Overcast
8:16 PM 66.2 °F 60.8 °F 83% 29.81 in 10.0 mi WNW 16.1 mph - N/A   Scattered Clouds
8:36 PM 66.2 °F 60.8 °F 83% 29.82 in 10.0 mi WNW 10.4 mph 16.1 mph N/A   Scattered Clouds
8:56 PM 66.2 °F 60.8 °F 83% 29.82 in 10.0 mi WNW 9.2 mph - N/A   Overcast
9:16 PM 64.4 °F 59.0 °F 83% 29.83 in 10.0 mi NW 11.5 mph 19.6 mph N/A   Overcast
9:37 PM 64.4 °F 57.2 °F 77% 29.84 in 10.0 mi WNW 9.2 mph 18.4 mph N/A   Mostly Cloudy
9:52 PM 62.6 °F 57.2 °F 82% 29.85 in 10.0 mi WNW 8.1 mph - N/A   Scattered Clouds
10:12 PM 62.6 °F 55.4 °F 77% 29.85 in 10.0 mi WNW 10.4 mph - N/A   Clear
10:32 PM 62.6 °F 55.4 °F 77% 29.86 in 10.0 mi WNW 5.8 mph - N/A   Clear
10:52 PM 60.8 °F 55.4 °F 82% 29.86 in 10.0 mi WNW 4.6 mph - N/A   Clear
11:12 PM 60.8 °F 57.2 °F 88% 29.86 in 10.0 mi West 4.6 mph - N/A   Mostly Cloudy
11:32 PM 60.8 °F 57.2 °F 88% 29.86 in 10.0 mi West 5.8 mph - N/A   Overcast
11:52 PM 60.8 °F 55.4 °F 82% 29.86 in 10.0 mi West 6.9 mph - N/A   Mostly Cloudy